{"data":{"norad_id":69738,"intl_designator":"2026-149B","name":"CZ-4B R/B","alt_names":[],"object_type":"ROCKET_BODY","status":"UNKNOWN","operator":null,"country":"PRC","launch_date":"2026-07-01","launch_site_code":"JSC","launch_vehicle":null,"mission":null,"orbit_class":"UNKNOWN","rcs_meters":null,"size_class":null,"mass_kg":null,"dimensions":null,"purposes":[],"wikipedia_slug":null,"has_3d_model":false,"image_url":null,"decayed_at":null,"tle_current":{"epoch":"2026-07-30T22:24:20.645856Z","epoch_age_seconds":4482253,"freshness":"OLD","line1":"1 69738U 26149B   26211.93357229  .00000090  00000+0  46604-4 0  9999","line2":"2 69738  99.3224 221.0779 0197641 284.6353  73.2989 14.30072535  4384","mean_motion":14.30072535,"eccentricity":0.0197641,"inclination_deg":99.3224,"raan_deg":221.0779,"arg_perigee_deg":284.6353,"mean_anomaly_deg":73.2989,"bstar":4.6604e-5,"rev_number":438,"period_min":100.69419310958,"perigee_km":649.78718814606,"apogee_km":933.18957413689,"semimajor_km":7169.6253811415,"source":"CELESTRAK","updated_at":"2026-07-31T09:00:36.574120Z"}}}